Location: Hilton Head Island
(32.2163°N, 80.7526°W)
Time: 15:14:05
(UTC-05:00)

A-11 Canister half - All Passes

Search period start: 15 February 2026 00:00
Search period end: 25 February 2026 00:00
Orbit: 1512 x 1687 km, 47.2° (Epoch: 15 February)

Date Brightness Start Highest point End Pass type
(mag) Time Alt. Az. Time Alt. Az. Time Alt. Az.
15 Feb - 01:01:35 10° WNW 01:10:20 33° N 01:18:49 10° ENE visible
15 Feb - 03:08:03 10° NW 03:17:28 49° NNE 03:26:30 10° E visible
15 Feb - 05:13:16 10° WNW 05:22:43 65° SW 05:31:51 10° SE visible
15 Feb - 07:22:14 10° W 07:26:15 13° WSW 07:30:14 10° SSW daylight
15 Feb - 18:26:01 10° SSE 18:30:51 14° ESE 18:35:40 10° E visible
15 Feb - 20:24:37 10° SSW 20:34:37 64° SE 20:44:29 10° ENE visible
15 Feb - 22:30:11 10° W 22:39:59 51° NNW 22:49:35 10° NE visible
16 Feb - 00:38:21 10° WNW 00:47:07 33° N 00:55:39 10° ENE night (unlit)
16 Feb - 02:44:56 10° NW 02:54:20 47° NNE 03:03:20 10° E visible
16 Feb - 04:50:09 10° NW 04:59:42 69° SW 05:08:55 10° SE visible
16 Feb - 06:58:29 10° W 07:03:18 15° WSW 07:08:05 10° SSW daylight
16 Feb - 18:03:57 10° SE 18:07:52 13° ESE 18:11:46 10° E daylight
16 Feb - 20:01:39 10° SSW 20:11:34 60° SE 20:21:23 10° ENE visible
16 Feb - 22:06:57 10° WSW 22:16:50 53° NNW 22:26:31 10° NE visible
17 Feb - 00:15:05 10° WNW 00:23:54 33° N 00:32:29 10° ENE night (unlit)
17 Feb - 02:21:50 10° NW 02:31:11 45° NNE 02:40:10 10° E visible
17 Feb - 04:27:03 10° NW 04:36:41 74° SW 04:45:58 10° SE visible
17 Feb - 06:34:52 10° W 06:40:21 17° WSW 06:45:47 10° SSW visible
17 Feb - 17:42:19 10° SE 17:44:53 11° ESE 17:47:28 10° ESE daylight
17 Feb - 19:38:41 10° SSW 19:48:31 56° SE 19:58:15 10° ENE visible
17 Feb - 21:43:44 10° WSW 21:53:41 56° NNW 22:03:27 10° NE visible
17 Feb - 23:51:49 10° WNW 00:00:42 34° N 00:09:19 10° ENE visible
18 Feb - 01:58:42 10° NW 02:08:02 44° NNE 02:17:00 10° E visible
18 Feb - 04:03:56 10° NW 04:13:40 78° SW 04:23:00 10° SE visible
18 Feb - 06:11:21 10° W 06:17:24 19° WSW 06:23:23 10° SSW visible
18 Feb - 19:15:45 10° SSW 19:25:28 52° SE 19:35:08 10° ENE visible
18 Feb - 21:20:32 10° WSW 21:30:33 58° NNW 21:40:24 10° NE visible
18 Feb - 23:28:34 10° WNW 23:37:28 34° N 23:46:10 10° ENE visible
19 Feb - 01:35:35 10° NW 01:44:52 42° NNE 01:53:49 10° E visible
19 Feb - 03:40:51 10° NW 03:50:38 83° SW 04:00:01 10° SE visible
19 Feb - 05:47:55 10° W 05:54:28 21° SW 06:00:53 10° S visible
19 Feb - 18:52:50 10° SSW 19:02:26 49° SE 19:11:59 10° ENE visible
19 Feb - 20:57:20 10° WSW 21:07:24 61° NNW 21:17:20 10° NE visible
19 Feb - 23:05:17 10° WNW 23:14:15 34° N 23:23:01 10° NE visible
20 Feb - 01:12:26 10° NW 01:21:42 41° NNE 01:30:37 10° E night (unlit)
20 Feb - 03:17:44 10° NW 03:27:35 87° SW 03:37:00 10° SE visible
20 Feb - 05:24:32 10° WNW 05:31:30 23° SW 05:38:21 10° S visible
20 Feb - 18:29:57 10° SSW 18:39:25 45° SE 18:48:50 10° ENE visible
20 Feb - 20:34:10 10° WSW 20:44:16 64° NNW 20:54:16 10° NE visible
20 Feb - 22:42:00 10° WNW 22:51:02 35° N 22:59:52 10° NE visible
21 Feb - 00:49:18 10° NW 00:58:31 40° NNE 01:07:25 10° E night (unlit)
21 Feb - 02:54:39 10° NW 03:04:31 88° NE 03:13:59 10° SE visible
21 Feb - 05:01:11 10° WNW 05:08:32 25° SW 05:15:44 10° S visible
21 Feb - 18:07:06 10° SSW 18:16:23 42° SE 18:25:40 10° ENE daylight
21 Feb - 20:11:00 10° WSW 20:21:09 67° NNW 20:31:13 10° NE visible
21 Feb - 22:18:44 10° WNW 22:27:50 36° N 22:36:44 10° NE visible
22 Feb - 00:26:09 10° NW 00:35:20 39° NNE 00:44:13 10° E visible
22 Feb - 02:31:33 10° NW 02:41:28 84° NE 02:50:58 10° SE visible
22 Feb - 04:37:53 10° WNW 04:45:35 28° SW 04:53:06 10° S visible
22 Feb - 17:44:16 10° SSW 17:53:21 39° SE 18:02:28 10° ENE daylight
22 Feb - 19:47:51 10° WSW 19:58:02 71° NW 20:08:08 10° NE visible
22 Feb - 21:55:28 10° WNW 22:04:36 36° NNW 22:13:36 10° NE visible
23 Feb - 00:02:59 10° NW 00:12:09 38° NNE 00:21:01 10° E visible
23 Feb - 02:08:28 10° NW 02:18:24 80° NE 02:27:55 10° SE visible
23 Feb - 04:14:36 10° WNW 04:22:37 30° SW 04:30:25 10° S visible
23 Feb - 17:21:27 10° S 17:30:21 36° SE 17:39:16 10° ENE daylight
23 Feb - 19:24:43 10° WSW 19:34:55 74° NW 19:45:03 10° NE visible
23 Feb - 21:32:11 10° WNW 21:41:24 37° NNW 21:50:28 10° NE visible
23 Feb - 23:39:49 10° NW 23:48:57 37° NNE 23:57:48 10° ENE visible
24 Feb - 01:45:22 10° NW 01:55:19 76° NE 02:04:51 10° ESE night (unlit)
24 Feb - 03:51:21 10° WNW 03:59:39 33° SW 04:07:42 10° S visible
24 Feb - 16:58:40 10° S 17:07:20 34° SE 17:16:02 10° ENE daylight
24 Feb - 19:01:36 10° WSW 19:11:48 78° NW 19:21:59 10° NE visible
24 Feb - 21:08:54 10° W 21:18:11 38° NNW 21:27:20 10° NE visible
24 Feb - 23:16:39 10° NW 23:25:45 36° NNE 23:34:35 10° ENE visible
